Back to catalog

KUIPER-00220

AliveCommunicationsLEO
NORAD 67781·PAYLOAD·🇺🇸 United States

Launched Feb 12, 2026 from Guiana Space Centre

Loading…

Next Passes (next 24 hours)

TLE

FreshSource: CelesTrak SupGP

Epoch: Sep 14, 2026, 23:36 UTC

1 67781C 26030T   26257.98398148  .00006221  00000+0  81444-3 0  2573
2 67781  51.8951  63.5502 0000649 109.7458 128.6554 14.79918118    15

Track KUIPER-00220 in real time with AllMySat

Download on the App Store